Theta_e
306 306 305 305 307 308 309 312 314 316 318 311 313 314 317 316 314 313 308 309 308 308 308 307 307 310 308 312 315 315 315 316 317 321 322 321 319 318 317 316 317 319 318 321 321 320 321
304 305 305 306 306 306 307 308 308 312 316 317 314 313 315 317 315 314 311 311 308 309 309 308 307 310 310 307 308 309 315 316 318 321 321 322 320 319 318 317 316 316 317 316 317 318 318
303 303 303 303 304 305 305 306 306 307 313 316 315 314 313 316 316 314 313 309 309 310 310 308 307 308 310 309 310 310 315 316 318 321 321 321 321 319 319 318 318 318 317 316 316 317 317
302 302 302 303 303 302 303 304 305 305 307 311 314 313 313 314 315 314 313 309 309 311 311 310 310 309 308 309 308 311 312 315 315 317 315 314 318 318 319 318 317 318 317 318 315 316 317
302 301 302 301 302 302 301 302 303 303 304 307 310 314 313 314 314 316 313 308 308 311 311 309 311 310 309 310 309 308 311 311 313 313 315 315 313 313 315 316 317 318 318 318 316 315 317
301 300 301 300 301 301 301 301 302 302 302 304 306 312 313 313 314 314 313 307 309 312 309 310 311 311 311 311 309 308 309 311 312 313 314 314 313 313 313 315 315 316 318 317 317 316 314
301 300 300 300 300 300 300 300 301 302 302 303 303 308 313 313 314 315 312 309 311 310 309 309 311 311 310 311 310 310 310 310 311 311 311 311 313 315 314 312 313 314 316 317 316 315 315
301 301 300 300 300 300 300 300 301 301 301 303 303 306 310 313 314 315 312 310 311 309 309 309 310 312 311 311 311 311 310 311 311 311 309 310 311 311 310 311 313 313 314 314 312 312 313
301 300 301 300 300 299 299 300 300 301 302 302 303 304 308 313 315 315 313 308 310 310 308 308 309 310 312 311 312 311 311 311 310 309 309 310 310 309 310 310 311 312 311 310 310 310 311
300 300 300 300 299 299 299 299 299 300 301 301 303 303 306 311 313 314 311 309 309 309 299 304 309 310 310 311 311 312 311 311 310 310 309 311 310 310 309 310 309 311 309 311 312 312 312
300 300 300 299 299 299 299 299 300 301 301 301 301 302 304 307 309 313 311 309 308 307 301 307 310 311 311 310 311 311 311 311 312 312 311 312 310 310 312 310 309 311 310 311 312 312 312
300 300 299 298 299 299 299 300 299 299 300 301 302 301 302 304 312 314 312 309 307 300 304 310 309 311 312 311 312 311 312 311 312 312 311 310 309 309 309 309 309 310 310 311 312 313 315
300 299 299 298 299 299 299 299 300 300 300 300 303 301 302 304 310 313 311 308 306 304 306 310 310 309 310 311 311 312 312 313 314 314 312 312 312 311 310 310 310 311 314 315 315 315 313
301 300 298 298 298 299 299 299 300 300 300 303 304 302 302 303 306 311 307 304 304 306 307 309 308 309 309 309 311 311 312 312 312 313 313 310 309 311 310 310 310 311 312 314 315 310 308
298 298 298 298 298 299 298 299 301 301 303 304 304 303 305 303 306 308 307 308 306 305 309 310 309 309 310 310 311 311 312 311 310 311 313 313 309 309 310 309 310 313 313 311 314 314 316
299 298 298 298 298 298 297 300 301 301 302 305 304 305 304 304 308 308 307 307 307 308 308 308 310 309 311 311 311 312 310 306 309 309 307 308 311 307 309 310 310 312 310 313 313 315 315
298 297 297 297 297 297 297 300 301 302 303 304 304 305 307 308 305 308 309 307 307 310 309 309 309 310 310 311 311 310 307 306 307 307 307 309 310 308 310 311 311 313 314 313 312 313 310
297 297 297 297 297 297 298 299 301 301 302 305 304 305 309 308 307 308 310 308 309 310 310 310 310 311 310 310 310 309 307 307 307 307 309 309 310 311 308 309 309 310 311 311 312 308 309
297 297 297 296 297 297 298 299 301 301 302 304 306 306 309 306 307 309 309 309 310 311 310 310 310 311 311 312 312 309 307 307 307 308 308 309 311 312 311 310 310 311 311 310 310 310 308
296 296 296 297 297 296 297 299 301 302 302 306 305 306 308 307 307 309 309 310 310 310 311 310 312 311 311 313 311 311 308 308 307 308 309 309 312 312 313 313 310 312 311 311 311 312 310
296 296 297 297 297 297 297 299 300 301 304 307 307 304 305 306 308 309 308 309 310 312 310 310 312 312 312 315 312 312 308 309 309 309 310 310 312 311 312 312 310 312 312 312 312 310 310
296 296 296 296 297 296 297 298 300 301 305 308 308 309 308 307 308 308 310 310 310 312 311 312 312 311 312 314 311 310 309 308 309 312 312 311 311 312 312 312 313 313 314 313 311 311 311
296 296 297 296 296 296 296 298 300 301 303 304 306 310 310 309 309 310 310 310 311 311 311 312 311 312 313 313 311 312 310 309 310 312 313 312 311 314 316 314 314 318 314 313 312 311 311
296 296 296 296 296 296 296 298 299 301 303 304 306 310 310 311 310 310 311 311 311 312 313 312 312 312 312 312 313 312 311 309 309 310 311 314 312 314 317 318 324 319 318 313 313 313 311
296 296 296 296 295 296 296 298 298 301 302 305 309 311 311 310 311 311 310 310 311 311 312 312 312 312 313 313 314 313 314 312 311 311 311 312 315 318 321 320 319 317 319 316 315 315 312
296 297 296 295 295 295 295 296 298 300 302 307 311 311 312 310 309 310 310 312 313 312 312 312 312 312 313 314 315 315 314 313 315 315 309 311 312 316 317 320 321 314 310 316 316 322 316
294 295 296 295 295 296 296 295 297 299 302 306 310 311 311 311 311 312 311 312 312 311 311 310 310 310 311 314 317 313 316 314 317 316 317 316 316 318 320 318 314 312 310 316 321 317 309
295 295 297 295 295 295 295 295 297 298 301 305 310 312 312 312 312 312 311 311 312 310 310 309 311 311 312 316 317 316 315 312 314 312 315 314 316 318 317 317 314 310 312 313 310 310 311
295 295 296 295 295 295 295 294 297 298 301 304 308 311 311 311 311 312 312 312 311 312 311 310 312 312 312 316 314 316 319 313 312 314 311 315 313 314 313 312 309 312 311 313 311 310 309
Wind_Speed
25 26 27 25 25 26 29 29 22 20 19 22 20 24 21 18 17 15 13 10 8 6 5 5 6 6 8 11 15 2 3 5 9 21 22 14 8 5 4 3 1 4 3 7 7 12 14
25 26 26 27 27 27 27 26 26 24 21 19 22 22 24 21 15 16 13 12 10 7 6 6 6 6 8 4 11 17 7 4 5 15 18 16 6 8 3 3 3 1 5 8 8 11 12
26 28 27 28 30 28 28 27 27 22 22 19 19 22 25 21 18 17 13 13 11 8 6 6 6 7 11 18 8 7 14 9 10 11 10 14 13 6 3 2 3 3 4 6 7 9 7
27 28 29 29 30 31 29 28 28 27 24 22 17 23 24 23 22 18 14 14 11 8 6 6 6 7 8 7 9 12 19 14 11 10 8 3 3 9 8 5 4 3 2 3 5 4 8
27 29 30 31 31 31 31 29 29 28 26 25 24 21 24 24 22 18 13 11 12 9 8 6 7 7 9 7 9 12 13 16 18 12 9 3 3 4 4 3 3 5 5 5 6 4 5
28 29 30 32 32 31 30 32 30 29 28 25 27 24 24 25 23 20 14 12 13 12 9 7 9 6 9 2 2 5 15 12 6 11 9 7 6 3 3 4 5 4 4 3 8 3 5
26 28 28 30 33 33 32 33 30 29 27 26 23 23 18 27 25 23 20 19 9 6 15 11 7 6 1 1 3 2 8 16 8 8 5 3 5 7 10 7 3 1 5 11 6 8 8
27 29 30 30 31 32 34 32 31 31 27 26 23 25 18 28 27 30 27 23 19 5 4 23 20 15 6 3 1 4 10 11 6 5 4 1 10 7 5 5 7 8 10 13 13 13 11
31 33 35 34 33 32 35 31 32 30 28 22 23 22 21 27 25 36 32 29 21 14 1 5 20 24 13 12 5 7 14 9 3 5 6 7 3 7 10 5 7 9 10 8 12 8 13
33 33 33 34 34 34 33 32 32 31 30 28 23 21 21 15 24 40 36 28 19 11 4 4 4 5 12 10 5 20 18 9 3 9 5 9 12 7 5 6 8 14 8 13 13 6 7
32 33 35 33 34 35 33 33 30 30 32 28 23 24 24 21 17 41 34 32 22 10 2 3 6 7 11 15 2 4 17 12 7 8 6 6 5 7 15 16 7 5 6 9 10 8 8
34 34 34 34 32 34 34 33 33 35 35 28 26 29 21 28 19 41 33 29 21 6 6 6 5 6 6 6 3 4 9 10 0 10 12 11 5 4 6 8 11 3 5 4 3 7 10
34 35 35 34 33 33 34 34 34 37 32 38 37 30 22 28 10 39 39 34 5 4 0 6 5 6 6 6 5 5 6 8 6 4 8 4 15 4 4 4 7 10 2 2 5 6 8
33 35 35 34 30 34 34 32 36 38 38 23 16 19 21 38 16 43 49 6 4 6 5 5 5 8 6 6 4 7 4 7 11 5 1 4 5 12 11 14 7 15 11 5 4 4 4
35 36 34 33 30 32 34 30 37 42 22 11 2 11 18 38 23 50 34 3 8 7 7 9 11 4 5 6 3 6 8 6 7 15 6 3 4 2 7 8 8 5 10 13 6 4 4
35 35 33 32 29 31 31 32 37 40 26 5 5 5 13 15 50 38 11 7 4 4 6 5 5 5 6 7 8 7 6 4 6 12 7 2 6 6 4 9 10 7 1 3 5 4 4
34 35 33 31 28 31 28 32 36 39 31 4 2 5 9 23 44 24 7 3 3 6 7 4 4 5 4 6 8 5 5 4 7 5 13 5 4 1 5 10 12 8 5 6 2 4 4
35 34 32 30 27 28 27 32 33 35 25 1 5 2 24 51 8 4 5 6 5 5 3 3 3 4 5 7 7 6 7 5 7 9 10 9 3 6 14 5 14 14 10 15 6 5 4
34 34 31 29 27 27 27 30 31 32 20 20 2 3 31 48 4 6 5 4 3 4 3 3 3 2 4 6 4 8 4 6 15 10 11 10 5 4 4 1 6 10 16 18 15 1 10
34 33 30 29 28 27 28 29 31 33 26 15 2 3 12 19 4 9 9 5 4 6 5 3 2 5 4 5 8 3 3 5 20 13 10 15 4 9 12 13 4 7 16 17 16 9 19
33 32 29 27 28 28 25 29 32 34 24 8 4 3 4 5 4 8 4 9 6 5 3 9 5 9 6 5 5 6 6 8 6 13 8 8 8 13 22 22 13 11 13 15 19 22 11
31 30 28 29 26 27 25 27 30 33 23 1 5 4 5 8 16 6 5 6 11 6 8 5 7 7 9 5 7 6 6 6 6 3 8 4 6 7 19 18 18 16 15 17 24 21 21
31 29 27 28 26 27 24 27 27 29 24 8 4 7 9 10 9 7 6 6 9 6 9 7 12 9 8 13 22 22 13 12 5 3 8 4 3 3 8 6 5 3 16 19 16 21 19
31 28 27 26 24 27 23 26 25 26 21 20 11 2 6 5 8 9 9 7 9 11 3 2 13 7 5 5 10 10 18 16 12 13 14 5 3 3 5 7 3 5 5 15 19 13 18
29 28 26 26 25 26 21 25 24 28 23 21 2 3 4 3 7 11 9 7 6 2 3 7 15 13 9 5 2 3 2 3 7 9 12 13 4 4 3 5 5 6 1 4 8 10 17
29 27 26 25 25 27 26 24 23 27 24 11 10 7 1 4 7 8 5 5 3 4 4 6 4 12 10 2 2 4 4 4 3 3 1 3 2 3 3 4 4 3 5 7 5 4 13
26 24 24 23 23 22 23 23 20 23 21 11 6 3 2 4 4 9 4 7 7 3 2 2 3 2 12 4 4 4 2 2 2 2 3 3 3 7 4 3 7 4 3 10 2 3 6
27 23 23 21 23 23 24 23 21 22 21 10 3 5 5 3 7 7 7 8 7 5 3 5 1 3 2 4 4 3 4 4 0 3 4 6 4 3 2 2 4 3 2 1 3 4 5
26 22 21 21 21 21 23 21 19 18 20 12 1 6 4 3 2 7 8 10 10 8 7 8 4 4 4 3 2 2 3 2 4 3 0 3 5 3 6 5 4 3 5 10 10 9 5
Wind_Direction
354 353 347 343 336 328 311 294 296 311 281 271 271 265 265 266 282 291 268 258 248 250 261 260 248 245 227 224 239 265 222 220 211 211 217 209 212 172 197 212 243 210 235 265 275 295 287
350 347 344 344 342 338 335 328 317 287 296 276 264 259 261 255 263 280 270 253 245 242 249 253 250 231 228 245 255 239 197 170 166 189 203 212 203 216 258 236 180 241 288 270 280 267 273
349 347 342 338 337 335 332 331 325 313 291 295 266 255 251 253 252 271 265 248 242 237 238 244 252 241 241 249 248 234 190 162 149 176 201 220 216 189 172 236 271 272 303 297 230 238 249
347 344 342 337 335 330 331 328 324 321 299 291 308 251 244 247 246 243 250 245 232 229 235 238 250 254 250 257 245 223 202 185 164 162 156 133 189 231 244 305 321 264 176 311 313 245 241
344 341 339 337 334 331 324 325 324 316 314 291 298 304 235 237 240 238 235 232 214 221 221 227 251 256 262 254 249 221 207 209 217 219 205 172 186 196 175 164 290 202 247 240 296 284 259
341 342 338 335 335 331 326 321 317 317 310 310 283 282 236 226 234 231 218 199 204 209 206 224 236 270 251 252 228 195 210 199 171 193 205 229 213 196 159 178 226 223 226 241 249 261 352
341 339 339 332 331 329 325 319 313 313 310 306 293 286 271 221 227 220 192 177 175 220 200 203 212 210 344 174 187 220 199 178 147 156 175 188 207 211 203 212 284 38 272 270 275 300 308
340 337 331 329 329 327 322 318 313 313 304 305 301 273 289 225 222 211 199 185 189 150 215 234 232 235 200 86 122 209 166 163 158 178 129 37 242 229 204 210 237 254 270 273 280 261 261
335 331 330 329 328 325 322 315 313 318 318 299 294 284 286 225 228 204 197 196 195 203 335 256 228 232 222 241 241 208 184 188 151 154 193 209 191 217 197 196 226 237 241 260 259 299 278
332 332 329 327 327 324 320 314 312 319 315 303 288 284 270 241 241 191 188 180 174 176 58 247 205 231 204 208 264 220 204 173 171 196 188 250 247 234 193 208 190 257 200 238 255 251 258
333 329 326 326 326 324 322 318 317 319 315 308 279 284 266 259 296 179 181 183 183 158 21 157 148 151 166 165 126 180 199 201 190 184 166 223 182 214 228 230 170 252 181 212 230 239 269
330 328 327 325 326 325 324 323 320 317 311 292 287 279 272 261 191 182 176 167 140 59 249 172 129 166 153 195 154 118 187 202 195 230 227 240 195 201 212 230 198 166 231 251 247 233 247
331 331 330 327 328 327 327 326 323 318 299 291 291 254 246 238 244 176 161 147 84 167 131 171 171 164 182 165 204 182 172 193 187 197 225 233 238 208 213 190 193 217 199 237 222 211 247
329 330 330 330 330 329 332 326 323 313 312 304 286 224 237 233 277 166 150 106 128 178 184 127 134 144 172 169 232 192 193 223 218 216 273 232 287 209 186 212 188 198 197 221 239 230 257
327 328 331 331 332 334 331 329 329 329 334 323 317 195 221 229 230 160 154 164 187 192 157 146 144 141 189 188 202 188 224 235 223 194 208 222 260 295 200 210 186 177 212 222 266 230 247
333 334 333 332 333 335 332 332 337 339 345 339 199 193 230 228 169 169 151 173 154 144 121 132 136 185 160 167 179 185 200 220 221 205 174 264 271 201 199 203 249 200 299 169 205 237 243
330 333 334 334 338 335 334 334 343 343 356 141 208 137 208 185 164 174 179 162 146 151 120 140 165 152 182 159 182 189 238 256 193 174 177 199 227 340 152 212 192 197 196 213 240 198 214
331 336 336 336 338 338 334 339 346 347 354 315 161 115 168 164 156 196 166 151 130 132 110 99 101 100 165 158 188 213 230 234 172 152 182 199 255 241 237 211 211 216 226 212 208 207 227
335 337 336 337 339 341 334 341 348 346 342 340 239 140 167 160 176 167 155 102 105 126 141 115 119 190 179 168 212 212 212 252 182 178 180 165 218 280 285 301 203 219 220 222 232 156 227
338 337 337 339 339 344 333 341 348 342 336 338 157 42 126 179 197 147 155 150 108 105 127 139 137 160 164 207 225 270 243 278 184 200 187 174 223 218 250 247 195 213 218 211 206 226 243
339 338 339 340 345 342 334 341 351 344 1 150 86 171 172 178 196 151 126 157 159 144 183 187 195 217 191 206 205 234 230 276 196 214 196 179 251 237 252 262 244 234 212 191 209 219 214
340 340 341 341 343 341 339 343 354 354 25 112 167 152 156 155 153 140 139 181 179 149 170 195 224 215 215 236 208 212 208 191 236 152 163 197 273 287 284 284 266 227 216 207 217 224 240
343 341 341 340 343 343 341 346 351 358 8 345 311 177 128 148 150 156 190 166 187 155 199 196 199 221 231 239 239 250 242 255 264 260 217 206 252 293 286 311 313 149 223 219 217 220 220
342 341 343 339 343 343 341 342 346 357 358 348 290 238 123 151 176 191 153 180 189 200 208 219 214 193 187 229 302 273 253 255 256 253 228 223 206 237 283 302 329 259 291 205 216 231 220
339 340 342 338 341 342 342 340 350 351 351 358 227 173 108 117 178 172 153 186 139 159 259 264 263 235 224 278 251 272 275 303 245 227 212 205 225 278 303 311 283 306 86 170 175 244 209
339 338 341 339 344 341 344 342 353 349 349 358 122 193 84 127 196 164 168 153 162 189 180 214 246 219 223 217 211 215 220 236 291 307 101 162 281 275 327 313 319 311 352 111 81 289 200
339 337 337 339 340 340 343 337 342 344 347 356 81 122 58 107 129 164 156 188 184 172 153 144 166 225 212 200 195 216 232 282 247 266 145 182 216 239 258 274 285 272 335 125 57 281 319
336 339 334 339 338 339 341 340 344 347 349 359 186 86 70 84 148 175 179 161 160 186 164 156 172 199 200 220 194 176 220 224 171 235 196 180 170 216 172 261 313 333 29 263 233 302 300
340 340 336 337 337 338 334 340 345 343 345 8 245 156 101 59 172 210 221 223 236 241 189 180 200 150 254 238 196 173 201 185 170 270 306 249 186 195 176 215 232 223 272 298 309 303 316